Home > Weather > Schwedt/Oder > Past weeks

Flag for Germany Weather for the Past 2 Weeks in Schwedt/Oder, Brandenburg, Germany

Now
54 °F

Sunny.


Feels Like: 52 °F
Forecast: 44 / 69 °F
Wind: 7 mph from Northeast

Location: Szczecin Airport

Current Time: May 2, 2016 at 10:15:12 PM

Latest Report: May 2, 2016 at 9:30 PM


Visibility: 10 mi

Pressure: 30.15 "Hg

Humidity: 58%

Dew Point: 39 °F

Location of Schwedt/OderLocation

Historic Weather in Schwedt/Oder — Graph

°F

Schwedt/Oder Temperature Yesterday

Maximum temperature yesterday: 63 °F (at 11:30 AM)
Minimum temperature yesterday: 37 °F (at 6:00 AM)
Average temperature yesterday: 54 °F

High & Low Weather Summary for the Past Weeks

 TemperatureHumidityPressure
High66 °F (May 2, 4:00 PM)100% (Apr 24, 1:00 AM)30.30 "Hg (Apr 24, 1:00 AM)
Low28 °F (Apr 25, 12:30 AM)25% (May 1, 5:00 PM)29.47 "Hg (Apr 26, 6:30 PM)
Average45 °F67%29.95 "Hg
* Reported Apr 17 9:00 PM — May 2 9:00 PM, Schwedt/Oder, Weather by CustomWeather, © 2016

Note: Actual official high and low records may vary slightly from our data, if they occured in-between our weather recording intervals... More about our weather records

Advertising

Schwedt/Oder Weather History for the Previous 24 Hours

Scroll right to see more
 ConditionsComfort  
Time TempWeatherWind HumidityBarometerVisibility
9:00 PM
Mon, May 2
55 °FSunny.7 mph55%30.15 "Hg10 mi
8:30 PM57 °FSunny.9 mph51%30.15 "Hg10 mi
8:00 PM59 °FSunny.9 mph48%30.15 "Hg10 mi
7:30 PM59 °FSunny.10 mph48%30.15 "Hg10 mi
7:00 PM61 °FSunny.12 mph45%30.15 "Hg10 mi
6:30 PM63 °FPassing clouds.10 mph42%30.15 "HgN/A
6:00 PM64 °FPassing clouds.9 mph40%30.18 "HgN/A
5:30 PM64 °FPassing clouds.8 mph37%30.18 "HgN/A
5:00 PM64 °FSunny.7 mph40%30.18 "Hg10 mi
4:30 PM64 °FPassing clouds.9 mph37%30.18 "HgN/A
4:00 PM66 °FSunny.8 mph32%30.18 "Hg10 mi
3:30 PM64 °FPassing clouds.8 mph34%30.21 "HgN/A
3:00 PM64 °FSunny.9 mph32%30.21 "Hg10 mi
2:30 PM64 °FSunny.7 mph34%30.24 "Hg10 mi
2:00 PM64 °FSunny.3 mph34%30.24 "Hg10 mi
1:30 PM63 °FPassing clouds.9 mph39%30.24 "HgN/A
1:00 PM63 °FPassing clouds.9 mph34%30.24 "HgN/A
12:30 PM61 °FPassing clouds.9 mph34%30.27 "HgN/A
12:00 PM61 °FPassing clouds.8 mph36%30.27 "HgN/A
11:30 AM61 °FPassing clouds.7 mph42%30.27 "HgN/A
11:00 AM59 °FPassing clouds.6 mph45%30.30 "HgN/A
10:30 AM57 °FPassing clouds.6 mph51%30.30 "HgN/A
10:00 AM57 °FPassing clouds.7 mph51%30.30 "HgN/A
9:30 AM55 °FPassing clouds.6 mph55%30.30 "HgN/A
9:00 AM54 °FPassing clouds.5 mph58%30.30 "HgN/A
8:30 AM54 °FPassing clouds.3 mph63%30.30 "HgN/A
7:00 AM43 °FSunny.1 mph87%30.30 "Hg10 mi
6:00 AM39 °FClear.3 mph87%30.30 "Hg10 mi
5:00 AM37 °FClear.2 mph93%30.30 "Hg10 mi
4:30 AM41 °FClear.2 mph87%30.30 "Hg10 mi
4:00 AM43 °FClear.3 mph87%30.30 "Hg10 mi
3:30 AM43 °FClear.3 mph87%30.30 "Hg10 mi
3:00 AM43 °FClear.2 mph87%30.30 "Hg10 mi
2:30 AM43 °FClear.5 mph87%30.30 "Hg10 mi
2:00 AM45 °FClear.8 mph81%30.30 "Hg10 mi
1:30 AM46 °FClear.8 mph76%30.30 "Hg10 mi
1:00 AM46 °FClear.8 mph76%30.30 "Hg10 mi
12:30 AM46 °FClear.8 mph76%30.30 "Hg10 mi
12:00 AM48 °FClear.7 mph66%30.30 "Hg10 mi
11:30 PM
Sun, May 1
48 °FClear.6 mph66%30.30 "Hg10 mi
11:00 PM50 °FClear.7 mph62%30.27 "Hg10 mi
10:30 PM50 °FPassing clouds.7 mph62%30.27 "HgN/A
10:00 PM52 °FClear.7 mph58%30.27 "Hg10 mi
Weather by CustomWeather, © 2016

See weather overviewHow to use our weather pages